This demonstration page uses our WeatherBlox Daily Observations layout. Learn more.

Left ArrowRight Arrow

30.21309, -93.2044

Hourly Observations for April 15, 2022

Temp ( °F °C ) Dew Point ( °F °C ) Humidity (%) Winds ( mph kmh ) Pressure ( in mb ) Visibility ( mi km ) Precip ( " mm )
12:15 am 00:15 Mostly Cloudy 64 17.6 55 12.9 74 74 NNE 6 9 30.02 1017 10 16 0.00 0.00
12:35 am 00:35 Mostly Cloudy 64 17.9 55 12.9 73 73 NE 7 11 30.02 1017 10 16 0.00 0.00
12:55 am 00:55 Mostly Cloudy 65 18.1 55 12.9 72 72 ENE 6 9 30.01 1016 10 16 0.00 0.00
1:15 am 01:15 Mostly Cloudy 64 17.6 55 13 75 75 ENE 6 9 30.01 1016 10 16 0.00 0.00
1:35 am 01:35 Partly Cloudy 63 17.3 56 13.1 77 77 ENE 5 7 30.01 1016 10 16 0.00 0.00
1:55 am 01:55 Clear 62 16.9 56 13.1 78 78 ENE 5 7 30.00 1016 10 16 0.00 0.00
2:15 am 02:15 Clear 61 16 55 13 83 83 E 6 9 29.99 1016 10 16 0.00 0.00
2:35 am 02:35 Clear 61 16.3 56 13.2 82 82 ENE 6 9 29.98 1015 10 16 0.00 0.00
2:55 am 02:55 Partly Cloudy 62 16.8 56 13.3 80 80 ENE 7 11 29.98 1015 10 16 0.00 0.00
3:15 am 03:15 Cloudy 63 17.2 56 13.6 80 80 ENE 7 11 29.98 1015 10 16 0.00 0.00
3:35 am 03:35 Cloudy 63 17.4 57 13.8 80 80 ENE 6 9 29.98 1015 10 16 0.00 0.00
3:55 am 03:55 Cloudy 63 17.4 57 13.9 80 80 ENE 7 11 29.97 1015 10 16 0.00 0.00
4:15 am 04:15 Cloudy 64 17.6 58 14.2 81 81 ENE 5 7 29.97 1015 10 16 0.00 0.00
4:35 am 04:35 Cloudy 64 18 59 15 83 83 E 6 9 29.97 1015 10 16 0.00 0.00
4:55 am 04:55 Cloudy 64 18 59 14.9 82 82 E 6 9 29.97 1015 10 16 0.00 0.00
5:15 am 05:15 Cloudy 65 18.1 60 15.4 84 84 E 7 11 29.97 1015 10 16 0.00 0.00
5:35 am 05:35 Cloudy 65 18.4 61 15.9 85 85 E 7 11 29.97 1015 10 16 0.00 0.00
6:00 am 06:00 Mostly Clear 66 19 61 16 83 83 E 8 13 29.97 1015 10 16 0.00 0.00
6:55 am 06:55 Mostly Cloudy 66 19 63 17 88 88 ENE 6 9 29.98 1015 10 16 0.00 0.00
7:55 am 07:55 Mostly Cloudy 70 21 66 19 88 88 ESE 12 19 30.00 1016 10 16 0.00 0.00
8:50 am 08:50 Cloudy with Light Rain 70 21 66 19 88 88 ESE 12 19 30.00 1016 5 8 0.00 0.00
9:20 am 09:20 Cloudy with Mist and Fog 70 21 66 19 88 88 SE 12 19 30.01 1016 5 8 0.00 0.00
9:50 am 09:50 Cloudy with Mist and Fog 72 22 68 20 88 88 SE 13 20 30.01 1016 5 8 0.00 0.00
10:50 am 10:50 Cloudy 72 22 70 21 94 94 SE 18 30 30.02 1017 7 11 0.00 0.00
11:50 am 11:50 Cloudy 75 24 70 21 83 83 SE 17 28 30.02 1017 7 11 0.00 0.00
12:45 pm 12:45 Cloudy 79 26 70 21 74 74 SSE 18 30 30.00 1016 10 16 0.00 0.00
1:50 pm 13:50 Cloudy 79 26 72 22 79 79 S 16 26 29.98 1015 10 16 0.00 0.00
2:45 pm 14:45 Cloudy 79 26 72 22 79 79 S 16 26 29.97 1015 10 16 0.00 0.00
3:45 pm 15:45 Mostly Cloudy 81 27 72 22 74 74 S 18 30 29.95 1014 10 16 0.00 0.00
4:45 pm 16:45 Mostly Cloudy 79 26 70 21 74 74 S 16 26 29.93 1014 10 16 0.00 0.00
5:45 pm 17:45 Mostly Cloudy 77 25 72 22 83 83 SSE 16 26 29.92 1013 10 16 0.00 0.00
6:48 pm 18:48 Mostly Cloudy 75 24 70 21 83 83 S 14 22 29.91 1013 10 16 0.00 0.00
7:45 pm 19:45 Cloudy 73 23 70 21 89 89 SSE 13 20 29.91 1013 7 11 0.00 0.00
8:45 pm 20:45 Cloudy with Mist and Fog 73 23 72 22 94 94 SSE 9 15 29.92 1013 3 5 0.00 0.00
9:45 pm 21:45 Cloudy with Mist and Fog 73 23 72 22 94 94 SSE 9 15 29.94 1014 2 3 0.00 0.00
10:15 pm 22:15 Cloudy with Light Rain 73 22.6 71 21.8 95 95 SSE 9 15 29.95 1014 4 6 0.01 0.25
10:35 pm 22:35 Cloudy with Mist and Fog 73 22.6 71 21.8 95 95 SSE 9 15 29.95 1014 4 6 0.01 0.25
10:55 pm 22:55 Cloudy with Mist and Fog 73 22.6 71 21.8 95 95 SSE 9 15 29.95 1014 4 6 0.01 0.25
11:15 pm 23:15 Cloudy with Light Rain 73 22.6 71 21.8 95 95 SSE 10 17 29.95 1014 4 6 0.01 0.25
11:35 pm 23:35 Cloudy with Mist and Fog 73 22.6 71 21.7 95 95 SSE 10 17 29.95 1014 5 8 0.01 0.25
11:55 pm 23:55 Cloudy with Mist and Fog 73 22.7 71 21.7 94 94 SSE 12 19 29.95 1014 7 11 0.01 0.25

Powered by AerisWeather